Location: *
(49.5667°N, 1.3667°W)
Time: 20:47:44
(UTC+00:00)

Lacrosse 5 rocket - Pass Details

Date: 20 September 2019
Orbit: 459 x 639 km, 57.0° (Epoch: 18 October)

Event Time Altitude Azimuth Distance (km) Brightness Sun altitude
Rises 20:17:40 0° 224° (SW) 2,489 4.9 -20.9°
Reaches altitude 10° 20:19:46 10° 220° (SW) 1,631 3.8 -21.2°
Enters shadow 20:21:46 30° 209° (SSW) 879 2.3 -21.5°
